Погода в Выксе

Погода в Выксе : погода сейчас, прогноз погоды и архив. Всё, что Вы хотите узнать о погоде в Выксе!

Хотите узнать прогноз погоды в Выксе? Тогда Вам сюда: Погода в Выксе

Поиск расширенной информации на нашем сайте:

Другие новости

Новости СМИ2

Главная страница сайта

Новости сайта

02.10.2013

Напоминаем, что на нашем новом сайте вы можете получить высокодетализированные прогнозы погоды по пунктам России, СНГ и мира (включающие важные для авиации метеовеличины, такие как направление и скорость ветра, видимость, явления погоды, количество и форма облачности, нижняя и верхняя граница облачности), а также ознакомиться с разнообразными материалами по авиационной метеорологии и подборкой полезных ссылок на эту тему.

Сайт Метеоцентр.Азия посвящён разработке технологий оптимизации авиаметеорологического обслуживания, включая проектирование и перспективное создание нескольких автоматизированных авиаметеорологических систем:
- система выпуска высокодетальных прогностических карт явлений погоды для нижнего воздушного пространства по России и ближнему зарубежью;
- система верификации прогнозов TAF (выпускаемых синоптиками официальных АМСГ РФ и ближнего зарубежья) и AUTOTAF (выпускаемых сайтом Метеоцентр.Азия) - выявление ошибок, онлайн-сопоставление с фактической погодой METAR, автоматическое внесение коррективов в прогнозы при резком отклонении фактической погоды от прогноза, подсчёт оправдываемости прогнозов по элементам и в целом;
- система обработки, анализа и отображения авиаметеорологической информации для применения провайдерами метеорологической информации.

Рекомендуем: Читайте тампоны clean point инструкция здесь все понятно!

Погода в Выксе - сегодня

Время (UTC), дата Ветер
(°,м/с) 
Видим.   Явления Облачность Т
(°С)
Тd
(°С)
f(%) Тe
(°С)
Pmin
(гПа)
dP
(гПа)
Po
(мм)
O2
(г/м3)
Тmin Tmax R s Состояние
почвы
09 26.04.17 190 (Ю) 5-11{12}  10 км    10/0 верхняя 
[Cs]
+14.7 -2.5 30 +14  1019.5  -1.4  754  289           
12 26.04.17 200 (Ю) 6-13{15}  10 км    8/8 600 м кучево-дожд. 
[Cb cap]
+16.2 -0.9 31 +16  1017.7  -1.8  753  287           
15 26.04.17 200 (Ю) 5-12{15}  10 км    10/0 средняя 
[Ac As]
+16.2 +0.2 34 +16  1015.4  -2.2  751  286    +16.2       
18 26.04.17 190 (Ю) 6-9{10}  10 км    8/0 средняя 
[As op]
+14.4 -1.2 34 +14  1015  -0.5  751  288           
21 26.04.17 200 (Ю) 4-8{12}  10 км    ясно 
+12.4 +0.4 44 +12  1015.7  0.6  752  290           
00 27.04.17 210 (ЮЗ) 4-8{09}  10 км    6/0 верхняя 
[Cs]
+11.9 -2.2 37 +11  1015.7  752  290           
03 27.04.17 210 (ЮЗ) 4-10{10}  10 км    10/0 средняя 
[Ac As]
+11.7 -0.2 44 +11  1015.9  0.2  752  290  +11.6         
06 27.04.17 220 (ЮЗ) 4-9{11}  10 км    10/0 средняя 
[As op]
+12.7 +0.2 42 +12  1016.2  0.3  752  289           
09 27.04.17 240 (ЮЗ) 3-4{10}  10 км  {дождь}  10/0 средняя 
[As op]
+10.8 +5.3 69 +10  1018.1  1.8  753  291           
12 27.04.17 250 (З) 1-3{06}  10 км  {дождь}  10/0 средняя 
[As op]
+13.3 +4.6 56 +15  1017.5  -0.5  753  289           
15 27.04.17 210 (ЮЗ) 6-12{16}  10 км    9/0 средняя 
[Ac As]
+19.1 -0.5 27 +19  1015.1  -2  751  283    +19.1  0.6     
18 27.04.17 200 (Ю) 4-8{13}  10 км    9/0 средняя 
[As op]
+17 -1.4 28 +17  1015.1  -0.1  751  285           
21 27.04.17 200 (Ю) 4-4{10}  10 км    ясно 
+14.9 -1.9 31 +15  1015.3  0.1  751  287           
00 28.04.17 300 (СЗ) 1-2{08}  10 км    6/0 средняя 
[Ac trans]
+6.8 +4.5 85 +8  1017.4  1.6  753  295           
03 28.04.17 320 (СЗ) 2-3{03}  10 км    10/0 средняя 
[As op]
+6.1 +5.4 95 +6  1018  0.6  753  296  +6         
06 28.04.17 350 (С) 4-5{05}  10 км    9/0 средняя, верхняя 
[Ac trans|Cs]
+10.2 +5.6 73 +9  1018.2  0.4  753  292           
09 28.04.17 360 (С) 6-8{08}  10 км    10/0 средняя 
[Ac As]
+12.2 +5.6 64 +11  1020.5  2.4  755  290           
12 28.04.17 010 (С) 5-7{09}  10 км    10/0 средняя 
[Ac As]
+9.6 +5 73 +8  1020.7  755  293           
15 28.04.17 040 (СВ) 4-6{06}  10 км    10/0 средняя 
[Ac As]
+8.9 +4.8 75 +8  1021.7  756  294    +12.2       
18 28.04.17 030 (СВ) 3-4{06}  10 км    9/0 средняя 
[Ac As]
+6.5 +3.9 83 +6  1022  0.2  756  297           
21 28.04.17 080 (В) 3-6{06}  10 км    6/0 средняя 
[Ac trans]
+6.1 +4.2 88 +5  1021.7  -0.2  756  297           
00 29.04.17 120 (ЮВ) 2-4{06}  10 км    6/0 средняя 
[As op]
+5.2 +3.8 91 +5  1020.9  -0.8  755  298           
03 29.04.17 170 (Ю) 1-3{04}  10 км    8/0 средняя 
[Ac As]
+5.6 +4.4 92 +6  1020.9  755  297  +5.1         
06 29.04.17 190 (Ю) 3-6{06}  10 км    6/0 средняя 
[Ac trans]
+19.4 +3.6 35 +20  1022.2  1.9  757  284           
09 29.04.17 180 (Ю) 4-8{10}  10 км    4/0 средняя 
[As op]
+22.5 +1.4 25 +23  1021.9  -0.1  756  281           
Время (UTC), дата Ветер
(°,м/с) 
Видим.   Явления Облачность Т
(°С)
Тd
(°С)
f(%) Тe
(°С)
Pmin
(гПа)
dP
(гПа)
Po
(мм)
O2
(г/м3)
Тmin Tmax R s Состояние
почвы

Для получения пояснительной информации подведите курсор к названию столбца.

ПОГОДА в Выксе - архив

Всё, что Вы хотите узнать о погоде в Выксе - удобно и подробно!

Выберите нужную дату (начиная с 1 января 2015* года) и нажмите кнопку "Найти".
Будут отображены архивные сводки погоды по пункту Выкса, начиная с указанной даты.


Отображать данные в формате CSV (для использования в таблицах Excel)


Внимание! Наш архив погоды предназначен исключительно для личного некоммерческого использования в познавательных целях. Если Вам необходимы официальные справки о состоянии погоды (для производственных, юридических, коммерческих и т.п. целей), обращайтесь в органы Росгидромета.

*Примечание: данная дата относится к архиву по метеостанциям СССР (Россия, СНГ, Балтия).
Архив по метеостанциям Зарубежной Европы и Азии (кроме Китая) хранится 10 дней, по другим регионам земного шара (Китай, Африка, Америка, Австралия, Океания) - 1 день.

Выкса - район местоположения метеостанции


Название, широта, долгота, высота метеостанции:
Выкса 55.3°ш. 42.1°д. 114 м над ур. моря [Российская Федерация]

Дополнительная информация

В oтличие oт бoльшинства пoгoдных сайтoв мы публикуем пoдрoбную метеoинфoрмацию в детальнoм прoфессиoнальнoм фoрмате.

Характеристики температуры и влажнoсти вoздуха измеряются на высoте 2 м в тени вдали oт зданий и деревьев.
Скoрoсть ветра измеряется на высoте 10 м (на урoвне рoста челoвека скoрoсть ветра ниже в 1.5-2 раза). Если метеoстанция нахoдится в гoрoде или в лесу, тo скoрoсть ветра занижена на 2-4 м/с пo сравнению с oткрытым местoм. Скoрoсть ветра над акватoриями крупных рек и oзёр, а также на вершинах хoлмoв на 2-5 м/с выше, чем в oбычных услoвиях.
Атмoсфернoе давление в разных тoчках местнoсти мoжет значительнo oтличаться oт давления на метеoстанции, в зависимoсти oт услoвий рельефа (при пoдъёме на 10 м давление пoнижается примернo на 1 мм рт.ст.).